SCP
-0 0 0 -0 -0 0 0 0 -0 0 -0 -0 0 0 0 -0 -0 -0 -0 -0 -0 -0 -0 -0 -0 -0 -0 -0 -0 -0 -0 -0 -0 0 0 0 0 0 0 0 0 -0 -0
0 0 0 0 0 0 0 0 -0 -0 -0 -0 0 0 -0 -0 -0 -0 -0 -0 0 -0 0 -0 -0 0 -0 -0 -0 -0 0 0 -0 -0 -0 0 0 0 0 -0 -1 -0 -0
0 0 0 0 0 0 0 0 -0 -0 -0 0 0 0 -0 0 -0 -0 -0 -0 -0 -0 -0 0 0 -0 -0 -0 -0 -0 -0 0 0 0 0 0 0 0 0 -0 -0 -0 -0
-0 0 0 0 0 0 0 0 -0 -0 -0 -0 0 -0 0 -0 -0 -0 -0 0 -0 0 0 0 0 -0 -0 0 0 0 0 0 0 -0 0 0 -0 0 0 -0 -0 -0 -0
0 0 0 0 0 0 0 0 -0 -0 -0 0 -0 -0 -0 -0 -0 0 0 -0 0 0 0 0 0 0 0 0 0 0 0 0 -0 -0 -0 0 0 -0 -0 -0 -0 -0 -0
0 0 0 0 0 0 0 0 -0 0 0 -0 -0 -0 -0 -0 -0 -0 -0 0 0 0 0 0 0 0 -0 0 -0 0 0 -0 -0 -0 -0 -0 -0 -0 -0 -0 -0 -0 -0
0 0 0 0 0 0 0 0 -0 0 0 0 -0 -0 -0 -0 -0 -0 0 -0 0 0 0 0 0 0 0 0 0 -0 -0 0 0 0 -0 -0 -0 -0 0 -0 -0 -0 -0
0 0 0 0 0 0 0 -0 0 0 0 -0 -0 -0 -0 -0 0 0 0 0 0 0 0 0 0 0 0 0 0 0 -0 0 0 0 -0 -0 -0 -0 -0 -0 -0 -0 -0
-0 0 0 0 0 0 0 -0 0 0 0 0 -0 0 0 0 0 0 0 0 0 0 0 0 0 0 0 0 0 0 0 -0 0 0 0 -0 -0 -0 -0 -0 -0 -0 -0
-0 0 0 0 0 -0 -0 0 0 -0 0 0 0 0 0 0 0 0 0 0 0 0 0 0 0 0 0 0 0 0 0 0 0 0 -0 -0 -0 -0 -0 -0 -0 -0 -0
-0 0 0 0 -0 -0 -0 -0 0 0 0 0 0 0 0 0 0 0 0 0 0 0 0 0 0 0 0 0 0 0 0 0 0 0 -0 -0 -0 -0 -0 -0 -0 -0 -0
0 0 0 0 -0 -0 -0 -0 0 0 0 0 0 0 0 0 0 0 0 0 0 0 0 0 0 0 0 0 0 0 0 0 0 -0 -0 -0 -0 -0 -0 -0 -0 -0 -0
0 -0 0 -0 -0 0 0 -0 0 0 0 0 0 0 0 0 0 0 0 0 0 -0 0 0 0 0 -0 -0 0 0 0 0 0 -0 -0 -0 -0 -0 -0 -0 -0 -0 -0
-0 -0 -0 -0 -0 0 -0 0 0 0 0 0 0 0 0 0 0 0 -0 -0 0 0 0 0 0 0 0 0 0 -0 -0 -0 0 0 -0 -0 -0 -0 -0 -0 -0 -0 -0
-0 -0 -0 -0 -0 0 0 0 0 0 0 0 -0 0 0 0 -0 -0 0 0 -0 0 0 0 0 0 0 0 -0 0 -0 -0 0 -0 -0 -0 -0 -0 -0 -0 -0 -0 -0
-0 -0 -0 -0 -0 0 0 0 0 0 0 0 -0 -0 0 0 -0 0 0 0 0 0 -0 0 0 0 0 0 0 0 0 -0 0 -0 -0 -0 0 -0 -0 -0 -0 -0 -0
-0 -0 -0 -0 -0 -0 0 0 0 0 0 -0 -0 -0 -0 -0 0 0 0 0 0 0 0 0 0 0 0 0 0 0 -0 0 0 -0 0 -0 -0 0 -0 -0 -0 -0 -0
-0 -0 -0 -0 -0 -0 -0 0 0 0 0 -0 -0 -0 -0 -0 -0 -0 0 0 0 0 0 0 0 -0 0 0 0 -0 0 0 -0 -0 0 0 -0 -0 0 -0 -0 -0 -0
-0 -0 -0 -0 -0 -0 -0 0 0 0 0 -0 -0 -0 -0 -0 0 -0 -0 -0 0 0 -0 0 0 0 0 0 0 0 0 -0 -0 -0 -0 -0 -0 -0 -0 0 -0 -0 -0
-0 -0 -0 -0 0 0 -0 0 -0 0 -0 -0 -0 -0 0 -0 0 0 -0 0 0 -0 0 0 -0 0 0 -0 -0 0 0 0 -0 -0 0 -0 -0 0 0 -0 0 -0 -0
-0 -0 -0 -0 -0 0 -0 -0 0 0 -0 -0 -0 -0 -0 0 0 -0 -0 -0 -0 0 0 0 0 0 -0 0 0 0 0 -0 -0 -0 0 -0 0 0 0 0 -0 0 0
-0 -0 -0 -0 -0 0 0 0 -0 -0 -0 -0 -0 0 -0 -0 -0 -0 0 0 -0 -0 0 0 -0 0 -0 0 0 0 0 0 0 -0 -0 -0 0 -0 -0 0 0 0 0
0 -0 -0 -0 -0 -0 -0 -0 0 0 0 -0 -0 -0 -0 -0 -0 -0 -0 -0 -0 0 0 -0 0 0 0 0 -0 -0 0 0 0 0 0 0 0 0 0 0 0 0 0
0 0 -0 -0 -0 -0 -0 -0 -0 0 -0 0 0 0 0 -0 -0 -0 -0 -0 -0 0 -0 -0 -0 0 -0 0 0 -0 -0 -0 0 0 0 -0 -0 0 0 0 0 0 0
0 0 0 -0 -0 -0 -0 0 0 -0 -0 -0 -0 0 0 -0 -0 -0 -0 -0 -0 0 0 0 0 0 0 0 0 0 -0 -0 -0 0 0 -0 -0 -0 -0 0 0 -0 0
0 0 0 0 -0 -0 0 0 0 0 -0 -0 0 0 0 -0 -0 -0 -0 -0 -0 0 0 0 -0 0 -0 -0 -0 -0 0 -0 -0 0 0 0 0 0 0 0 0 0 0
Wind_Speed_500mb
61 56 52 44 45 44 45 46 44 37 28 26 25 24 24 22 22 25 23 22 19 19 19 18 18 15 14 16 17 13 11 11 9 12 13 14 15 17 26 28 24 8 15
63 59 49 44 46 42 41 41 38 33 27 24 23 24 23 23 26 25 23 21 21 20 20 20 20 20 24 25 25 24 16 13 14 15 16 14 17 21 25 25 25 7 15
49 46 41 44 45 41 43 41 38 33 28 24 24 22 24 23 22 18 21 21 20 21 19 19 20 21 19 16 17 22 22 21 28 26 26 20 9 19 19 18 11 17 19
56 43 42 45 45 43 44 40 36 31 27 26 22 22 21 21 19 20 20 20 19 20 20 19 20 21 20 19 17 16 24 26 31 15 21 22 11 14 15 15 16 15 15
48 45 48 47 46 44 42 37 33 29 28 24 21 21 22 21 21 22 21 21 22 22 21 19 18 18 18 18 19 17 20 28 28 23 22 15 15 14 18 20 15 19 25
44 45 53 48 45 43 39 34 31 29 25 22 20 20 21 22 22 21 21 23 26 26 23 22 20 18 17 16 14 14 20 30 25 14 20 15 17 14 19 19 12 16 16
50 49 50 50 47 41 38 33 31 28 24 21 19 18 20 21 19 21 24 27 29 30 28 25 23 20 16 13 11 15 19 23 17 14 6 17 8 20 20 17 18 17 17
54 51 48 49 44 38 36 32 29 26 23 21 19 19 21 21 22 24 25 26 28 29 28 26 24 21 21 20 15 14 18 24 16 15 16 8 9 18 18 18 17 17 16
52 49 45 41 43 37 34 31 27 24 21 19 19 19 20 21 22 22 21 21 23 24 25 25 23 20 18 18 22 21 23 29 14 12 12 9 12 14 14 17 17 16 16
53 47 43 39 37 31 33 30 26 22 17 20 21 23 25 26 23 21 19 18 20 19 18 19 18 18 21 18 19 22 26 21 19 17 14 10 8 13 16 15 15 14 15
51 48 43 39 35 30 26 26 24 21 20 20 21 25 22 16 12 16 9 11 15 14 15 14 17 19 15 20 20 25 22 9 9 18 10 8 10 14 15 14 14 12 12
55 50 45 40 35 31 24 23 19 18 15 15 13 14 19 12 11 4 10 11 11 12 13 7 13 19 18 19 14 16 22 10 10 3 5 6 10 13 12 11 11 11 10
53 51 46 42 37 33 29 22 20 16 15 12 13 14 7 8 9 9 6 11 8 13 14 6 8 20 7 23 4 9 6 2 16 9 4 7 9 13 11 11 11 9 10
53 50 46 43 38 34 25 24 21 19 18 14 11 12 6 6 6 5 6 6 10 3 5 8 5 10 16 8 22 9 3 9 13 7 11 9 8 12 13 12 11 11 9
53 50 47 44 37 35 30 25 23 21 20 16 11 11 9 7 5 7 9 4 7 2 7 9 5 3 1 11 5 12 10 9 5 4 4 8 4 9 12 12 13 10 11
53 51 47 43 39 36 33 28 26 24 19 19 14 13 14 11 5 5 1 8 6 6 14 8 3 5 3 8 4 5 2 3 8 9 8 3 11 5 9 12 10 10 10
53 51 48 44 41 38 34 31 26 23 21 17 16 18 14 12 7 8 3 5 5 7 7 5 6 2 10 3 3 5 2 7 8 15 3 7 10 7 3 5 10 12 11
53 52 49 45 42 39 34 30 27 25 23 19 18 15 16 15 16 3 4 7 7 6 4 4 1 11 5 1 2 1 5 7 2 2 7 3 10 9 5 6 2 6 8
55 53 51 47 44 41 37 33 31 29 27 23 20 19 21 19 16 11 8 21 7 8 14 4 7 6 1 1 5 3 1 7 3 14 13 4 10 5 10 3 7 3 1
56 54 51 49 46 45 38 38 32 31 28 26 24 24 23 19 17 16 13 10 4 3 6 3 4 7 1 3 5 4 5 5 5 5 4 12 12 3 11 3 12 7 6
58 56 56 55 54 49 45 40 38 36 32 29 28 30 28 23 21 22 14 17 11 6 5 2 3 4 6 6 8 9 7 10 5 8 8 13 7 9 5 6 18 11 9
64 64 62 62 61 61 47 44 39 36 32 29 29 31 31 23 25 22 23 11 23 19 9 7 9 6 4 4 3 11 17 14 13 10 5 5 7 7 3 2 4 7 8
70 69 67 68 66 64 52 45 43 37 36 33 33 33 32 29 27 26 21 17 17 17 19 5 7 10 5 4 17 10 5 25 19 11 10 8 9 4 2 7 7 8 10
74 70 69 71 70 64 64 47 51 46 41 39 35 34 32 33 33 30 30 23 23 15 14 8 12 14 10 7 6 14 10 4 7 15 13 9 6 6 8 5 3 5 8
73 72 71 73 72 65 64 65 53 55 44 34 37 35 41 36 36 35 33 27 24 23 20 22 15 13 12 12 10 10 11 10 10 7 21 20 9 13 9 9 7 9 6
71 71 70 74 75 75 68 68 68 56 54 44 40 38 36 33 37 38 39 37 32 28 24 18 22 19 19 15 13 14 13 14 13 12 12 16 19 21 16 14 16 14 12
Wind_Direction_500mb
150 145 139 136 138 138 141 142 145 140 131 119 113 101 100 94 90 82 77 73 87 100 101 110 103 99 91 89 81 78 94 111 118 123 122 113 102 104 107 103 104 109 102
148 148 143 139 143 140 145 143 145 142 137 121 108 104 98 91 84 82 84 73 81 98 103 105 99 93 91 88 67 59 70 98 103 110 97 84 102 109 125 116 119 136 107
145 158 146 147 146 142 144 142 143 140 134 118 108 106 98 99 100 98 91 87 85 94 101 101 97 95 85 75 59 61 69 86 91 100 101 102 93 122 126 136 140 113 107
157 158 154 148 147 145 143 144 142 139 127 119 119 108 97 90 95 95 94 91 87 88 92 96 98 92 84 71 64 76 71 90 92 90 110 122 96 113 113 112 108 114 98
154 151 152 149 148 146 147 145 142 134 127 128 121 105 94 96 93 90 89 86 89 89 90 91 89 89 81 73 71 76 75 89 80 63 100 124 120 110 103 98 78 104 107
147 146 149 150 152 151 147 146 139 135 132 129 119 103 97 100 94 91 84 87 88 89 89 89 93 97 91 82 78 72 83 93 72 88 94 118 132 116 120 119 130 113 116
149 156 150 154 155 151 148 143 140 139 135 128 120 106 102 101 97 86 91 90 90 91 89 89 95 96 90 83 80 75 86 98 89 93 84 109 125 110 104 113 107 109 112
150 149 151 154 153 148 149 146 144 142 135 127 121 110 104 96 91 90 92 92 93 94 91 89 92 92 86 75 76 100 96 107 89 109 112 183 128 111 106 106 107 107 105
154 155 153 153 155 151 151 149 149 142 132 130 123 109 98 95 92 89 92 99 101 95 89 88 90 89 90 89 74 84 99 105 106 128 105 117 132 110 118 114 107 104 107
157 159 156 155 151 150 152 154 147 135 137 130 116 102 91 81 83 72 84 101 102 93 78 84 85 87 76 78 84 78 96 90 106 110 131 206 149 121 122 127 120 110 115
164 164 163 159 158 157 160 158 144 148 134 126 114 106 90 110 93 81 126 116 104 88 77 81 71 71 91 80 66 69 82 88 108 117 185 179 165 130 123 126 127 121 111
168 169 169 166 166 164 164 172 152 154 143 110 126 108 94 146 135 112 71 82 82 83 66 71 95 90 41 83 52 72 77 112 94 207 239 163 168 150 143 136 129 137 126
172 173 175 171 173 168 171 167 165 167 176 175 169 140 127 189 135 52 53 54 56 26 67 332 295 84 128 44 62 57 86 259 133 139 50 126 144 153 157 158 154 156 153
177 178 179 178 180 177 182 172 175 175 174 176 188 174 160 115 174 124 112 112 168 28 90 310 45 69 129 199 67 60 127 165 129 218 79 85 133 146 153 165 170 175 176
183 183 184 184 188 186 183 183 181 182 177 177 192 199 175 171 276 268 152 96 348 113 176 97 67 54 108 74 277 109 76 33 129 205 221 358 89 167 167 164 184 178 187
186 188 189 191 196 191 189 188 186 186 193 184 195 215 212 174 220 2 177 149 47 299 36 55 19 79 139 86 119 103 78 77 181 196 223 14 15 185 179 183 176 186 199
188 191 192 193 198 196 195 196 190 200 189 201 197 213 202 203 238 176 283 84 220 285 323 21 56 59 141 67 100 195 309 217 184 198 174 259 36 81 72 144 196 209 206
190 192 192 194 199 200 200 205 200 198 200 203 207 215 228 198 195 190 221 190 222 245 140 176 100 131 43 51 328 332 327 186 38 157 190 173 215 175 84 61 136 171 201
191 193 194 195 199 202 201 204 203 208 203 206 209 208 233 216 223 227 272 232 74 290 104 82 199 12 314 183 187 60 138 175 207 147 115 179 155 254 189 349 329 235 147
195 196 195 197 198 205 204 203 209 209 212 209 210 209 217 223 221 243 242 247 269 50 259 178 234 142 73 323 350 117 142 161 166 132 194 222 155 281 198 299 310 270 306
197 198 199 197 201 202 202 207 207 210 215 216 214 212 219 221 230 245 236 234 235 248 229 247 253 30 209 334 135 131 125 112 152 144 137 135 80 147 88 276 275 330 256
199 201 202 201 203 204 207 206 212 213 217 219 219 220 219 226 229 224 223 237 242 264 260 187 220 203 247 198 245 183 152 156 152 151 109 102 123 109 80 211 194 247 13
201 202 205 209 206 211 199 210 210 214 214 222 219 223 228 224 223 222 235 217 234 206 252 186 215 219 251 227 199 258 217 178 164 182 193 154 151 132 77 77 109 133 166
203 204 206 213 212 213 211 206 211 211 214 216 219 221 225 227 220 226 233 229 230 215 234 247 228 216 226 207 224 235 255 149 185 169 180 199 182 200 161 156 148 158 127
203 204 205 212 213 206 216 206 215 214 217 218 216 221 227 229 229 224 225 231 232 216 223 227 218 211 225 205 207 206 215 213 251 126 188 187 189 210 215 193 206 202 170
203 204 205 208 215 212 213 218 206 219 210 216 217 218 222 226 231 231 221 223 234 222 216 237 228 231 198 219 206 208 206 205 218 224 206 195 210 212 219 221 224 216 220
Wind_Speed_850mb
61 56 52 44 45 44 45 46 44 37 28 26 25 24 24 22 22 25 23 22 19 19 19 18 18 15 14 16 17 13 11 11 9 12 13 14 15 17 26 28 24 8 15
63 59 49 44 46 42 41 41 38 33 27 24 23 24 23 23 26 25 23 21 21 20 20 20 20 20 24 25 25 24 16 13 14 15 16 14 17 21 25 25 25 7 15
49 46 41 44 45 41 43 41 38 33 28 24 24 22 24 23 22 18 21 21 20 21 19 19 20 21 19 16 17 22 22 21 28 26 26 20 9 19 19 18 11 17 19
56 43 42 45 45 43 44 40 36 31 27 26 22 22 21 21 19 20 20 20 19 20 20 19 20 21 20 19 17 16 24 26 31 15 21 22 11 14 15 15 16 15 15
48 45 48 47 46 44 42 37 33 29 28 24 21 21 22 21 21 22 21 21 22 22 21 19 18 18 18 18 19 17 20 28 28 23 22 15 15 14 18 20 15 19 25
44 45 53 48 45 43 39 34 31 29 25 22 20 20 21 22 22 21 21 23 26 26 23 22 20 18 17 16 14 14 20 30 25 14 20 15 17 14 19 19 12 16 16
50 49 50 50 47 41 38 33 31 28 24 21 19 18 20 21 19 21 24 27 29 30 28 25 23 20 16 13 11 15 19 23 17 14 6 17 8 20 20 17 18 17 17
54 51 48 49 44 38 36 32 29 26 23 21 19 19 21 21 22 24 25 26 28 29 28 26 24 21 21 20 15 14 18 24 16 15 16 8 9 18 18 18 17 17 16
52 49 45 41 43 37 34 31 27 24 21 19 19 19 20 21 22 22 21 21 23 24 25 25 23 20 18 18 22 21 23 29 14 12 12 9 12 14 14 17 17 16 16
53 47 43 39 37 31 33 30 26 22 17 20 21 23 25 26 23 21 19 18 20 19 18 19 18 18 21 18 19 22 26 21 19 17 14 10 8 13 16 15 15 14 15
51 48 43 39 35 30 26 26 24 21 20 20 21 25 22 16 12 16 9 11 15 14 15 14 17 19 15 20 20 25 22 9 9 18 10 8 10 14 15 14 14 12 12
55 50 45 40 35 31 24 23 19 18 15 15 13 14 19 12 11 4 10 11 11 12 13 7 13 19 18 19 14 16 22 10 10 3 5 6 10 13 12 11 11 11 10
53 51 46 42 37 33 29 22 20 16 15 12 13 14 7 8 9 9 6 11 8 13 14 6 8 20 7 23 4 9 6 2 16 9 4 7 9 13 11 11 11 9 10
53 50 46 43 38 34 25 24 21 19 18 14 11 12 6 6 6 5 6 6 10 3 5 8 5 10 16 8 22 9 3 9 13 7 11 9 8 12 13 12 11 11 9
53 50 47 44 37 35 30 25 23 21 20 16 11 11 9 7 5 7 9 4 7 2 7 9 5 3 1 11 5 12 10 9 5 4 4 8 4 9 12 12 13 10 11
53 51 47 43 39 36 33 28 26 24 19 19 14 13 14 11 5 5 1 8 6 6 14 8 3 5 3 8 4 5 2 3 8 9 8 3 11 5 9 12 10 10 10
53 51 48 44 41 38 34 31 26 23 21 17 16 18 14 12 7 8 3 5 5 7 7 5 6 2 10 3 3 5 2 7 8 15 3 7 10 7 3 5 10 12 11
53 52 49 45 42 39 34 30 27 25 23 19 18 15 16 15 16 3 4 7 7 6 4 4 1 11 5 1 2 1 5 7 2 2 7 3 10 9 5 6 2 6 8
55 53 51 47 44 41 37 33 31 29 27 23 20 19 21 19 16 11 8 21 7 8 14 4 7 6 1 1 5 3 1 7 3 14 13 4 10 5 10 3 7 3 1
56 54 51 49 46 45 38 38 32 31 28 26 24 24 23 19 17 16 13 10 4 3 6 3 4 7 1 3 5 4 5 5 5 5 4 12 12 3 11 3 12 7 6
58 56 56 55 54 49 45 40 38 36 32 29 28 30 28 23 21 22 14 17 11 6 5 2 3 4 6 6 8 9 7 10 5 8 8 13 7 9 5 6 18 11 9
64 64 62 62 61 61 47 44 39 36 32 29 29 31 31 23 25 22 23 11 23 19 9 7 9 6 4 4 3 11 17 14 13 10 5 5 7 7 3 2 4 7 8
70 69 67 68 66 64 52 45 43 37 36 33 33 33 32 29 27 26 21 17 17 17 19 5 7 10 5 4 17 10 5 25 19 11 10 8 9 4 2 7 7 8 10
74 70 69 71 70 64 64 47 51 46 41 39 35 34 32 33 33 30 30 23 23 15 14 8 12 14 10 7 6 14 10 4 7 15 13 9 6 6 8 5 3 5 8
73 72 71 73 72 65 64 65 53 55 44 34 37 35 41 36 36 35 33 27 24 23 20 22 15 13 12 12 10 10 11 10 10 7 21 20 9 13 9 9 7 9 6
71 71 70 74 75 75 68 68 68 56 54 44 40 38 36 33 37 38 39 37 32 28 24 18 22 19 19 15 13 14 13 14 13 12 12 16 19 21 16 14 16 14 12
Wind_Direction_850mb
150 145 139 136 138 138 141 142 145 140 131 119 113 101 100 94 90 82 77 73 87 100 101 110 103 99 91 89 81 78 94 111 118 123 122 113 102 104 107 103 104 109 102
148 148 143 139 143 140 145 143 145 142 137 121 108 104 98 91 84 82 84 73 81 98 103 105 99 93 91 88 67 59 70 98 103 110 97 84 102 109 125 116 119 136 107
145 158 146 147 146 142 144 142 143 140 134 118 108 106 98 99 100 98 91 87 85 94 101 101 97 95 85 75 59 61 69 86 91 100 101 102 93 122 126 136 140 113 107
157 158 154 148 147 145 143 144 142 139 127 119 119 108 97 90 95 95 94 91 87 88 92 96 98 92 84 71 64 76 71 90 92 90 110 122 96 113 113 112 108 114 98
154 151 152 149 148 146 147 145 142 134 127 128 121 105 94 96 93 90 89 86 89 89 90 91 89 89 81 73 71 76 75 89 80 63 100 124 120 110 103 98 78 104 107
147 146 149 150 152 151 147 146 139 135 132 129 119 103 97 100 94 91 84 87 88 89 89 89 93 97 91 82 78 72 83 93 72 88 94 118 132 116 120 119 130 113 116
149 156 150 154 155 151 148 143 140 139 135 128 120 106 102 101 97 86 91 90 90 91 89 89 95 96 90 83 80 75 86 98 89 93 84 109 125 110 104 113 107 109 112
150 149 151 154 153 148 149 146 144 142 135 127 121 110 104 96 91 90 92 92 93 94 91 89 92 92 86 75 76 100 96 107 89 109 112 183 128 111 106 106 107 107 105
154 155 153 153 155 151 151 149 149 142 132 130 123 109 98 95 92 89 92 99 101 95 89 88 90 89 90 89 74 84 99 105 106 128 105 117 132 110 118 114 107 104 107
157 159 156 155 151 150 152 154 147 135 137 130 116 102 91 81 83 72 84 101 102 93 78 84 85 87 76 78 84 78 96 90 106 110 131 206 149 121 122 127 120 110 115
164 164 163 159 158 157 160 158 144 148 134 126 114 106 90 110 93 81 126 116 104 88 77 81 71 71 91 80 66 69 82 88 108 117 185 179 165 130 123 126 127 121 111
168 169 169 166 166 164 164 172 152 154 143 110 126 108 94 146 135 112 71 82 82 83 66 71 95 90 41 83 52 72 77 112 94 207 239 163 168 150 143 136 129 137 126
172 173 175 171 173 168 171 167 165 167 176 175 169 140 127 189 135 52 53 54 56 26 67 332 295 84 128 44 62 57 86 259 133 139 50 126 144 153 157 158 154 156 153
177 178 179 178 180 177 182 172 175 175 174 176 188 174 160 115 174 124 112 112 168 28 90 310 45 69 129 199 67 60 127 165 129 218 79 85 133 146 153 165 170 175 176
183 183 184 184 188 186 183 183 181 182 177 177 192 199 175 171 276 268 152 96 348 113 176 97 67 54 108 74 277 109 76 33 129 205 221 358 89 167 167 164 184 178 187
186 188 189 191 196 191 189 188 186 186 193 184 195 215 212 174 220 2 177 149 47 299 36 55 19 79 139 86 119 103 78 77 181 196 223 14 15 185 179 183 176 186 199
188 191 192 193 198 196 195 196 190 200 189 201 197 213 202 203 238 176 283 84 220 285 323 21 56 59 141 67 100 195 309 217 184 198 174 259 36 81 72 144 196 209 206
190 192 192 194 199 200 200 205 200 198 200 203 207 215 228 198 195 190 221 190 222 245 140 176 100 131 43 51 328 332 327 186 38 157 190 173 215 175 84 61 136 171 201
191 193 194 195 199 202 201 204 203 208 203 206 209 208 233 216 223 227 272 232 74 290 104 82 199 12 314 183 187 60 138 175 207 147 115 179 155 254 189 349 329 235 147
195 196 195 197 198 205 204 203 209 209 212 209 210 209 217 223 221 243 242 247 269 50 259 178 234 142 73 323 350 117 142 161 166 132 194 222 155 281 198 299 310 270 306
197 198 199 197 201 202 202 207 207 210 215 216 214 212 219 221 230 245 236 234 235 248 229 247 253 30 209 334 135 131 125 112 152 144 137 135 80 147 88 276 275 330 256
199 201 202 201 203 204 207 206 212 213 217 219 219 220 219 226 229 224 223 237 242 264 260 187 220 203 247 198 245 183 152 156 152 151 109 102 123 109 80 211 194 247 13
201 202 205 209 206 211 199 210 210 214 214 222 219 223 228 224 223 222 235 217 234 206 252 186 215 219 251 227 199 258 217 178 164 182 193 154 151 132 77 77 109 133 166
203 204 206 213 212 213 211 206 211 211 214 216 219 221 225 227 220 226 233 229 230 215 234 247 228 216 226 207 224 235 255 149 185 169 180 199 182 200 161 156 148 158 127
203 204 205 212 213 206 216 206 215 214 217 218 216 221 227 229 229 224 225 231 232 216 223 227 218 211 225 205 207 206 215 213 251 126 188 187 189 210 215 193 206 202 170
203 204 205 208 215 212 213 218 206 219 210 216 217 218 222 226 231 231 221 223 234 222 216 237 228 231 198 219 206 208 206 205 218 224 206 195 210 212 219 221 224 216 220